カタログに戻る

COSMOS 2251 DEB

運用中LEO
NORAD 35830·DEBRIS·🇷🇺 Russia

打ち上げ Jun 16, 1993 から Plesetsk Cosmodrome

Loading…

次のパス (今後24時間)

TLE

最新Source: Space-Track

元期: Sep 14, 2026, 08:05 UTC

1 35830U 93036ATC 26257.33713866  .00002084  00000-0  81821-3 0  9996
2 35830  73.8597 123.8924 0121019  39.2650 321.7195 14.26031079651900

AllMySatでCOSMOS 2251 DEBをリアルタイム追跡

Download on the App Store